Weather History for Molokai, HI

Change the Weather History Date:

Wednesday, July 3, 2013

  Actual Average Record
Temperature  
Mean Temperature 76 °F -  
Max Temperature 82 °F 84 °F 90 °F (2001)
Min Temperature 71 °F 70 °F 65 °F (1983)
Cooling Degree Days 12    
Growing Degree Days 26 (Base 50)    
Moisture  
Dew Point 68 °F    
Average Humidity 76    
Maximum Humidity 91    
Minimum Humidity 56    
Precipitation  
Precipitation 0.00 in - - ()
Sea Level Pressure  
Sea Level Pressure 30.00 in    
Wind  
Wind Speed 10 mph (NE)    
Max Wind Speed 18 mph    
Max Gust Speed 24 mph    
Visibility 10 miles    
Events      
Averages and records for this station are not official NWS values.
T = Trace of Precipitation, MM = Missing Value Source: NWS Daily Summary

Daily Weather History Graph

Daily Weather History Graph

Search for Another Location

Airport:

Trip Planner

Search our weather history database for the weather conditions in past years. The results will help you decide how hot, cold, wet, or windy it might be!

Date:

Astronomy

Jul. 03, 2013 Rise Set
Actual Time 5:51 AM HST 7:14 PM HST
Civil Twilight 5:26 AM HST 7:38 PM HST
Nautical Twilight 4:56 AM HST 8:08 PM HST
Astronomical Twilight 4:26 AM HST 8:38 PM HST
Moon 2:23 AM HST (7/3) 3:45 PM HST (7/3)
Length of Visible Light 14h 12m
Length of Day
13h 23m
Waning Crescent, 16% of the Moon is Illuminated
Jul 3
Waning Crescent
Jul 7
New
Jul 15
First Quarter
Jul 22
Full
Jul 29
Last Quarter

Hourly Weather History & Observations

Time (HST) Temp. Heat Index Dew Point Humidity Pressure Visibility Wind Dir Wind Speed Gust Speed Precip Events Conditions
12:54 AM 73.0 °F - 64.0 °F 73% 29.98 in 10.0 mi NNE 5.8 mph - N/A   Overcast
1:54 AM 73.0 °F - 68.0 °F 84% 29.96 in 10.0 mi NE 8.1 mph - N/A   Overcast
2:54 AM 73.0 °F - 68.0 °F 84% 29.95 in 10.0 mi NE 11.5 mph 20.7 mph N/A   Overcast
3:54 AM 72.0 °F - 69.1 °F 91% 29.96 in 10.0 mi NNE 9.2 mph - N/A   Overcast
4:54 AM 72.0 °F - 68.0 °F 87% 29.97 in 10.0 mi NNE 9.2 mph 17.3 mph N/A   Mostly Cloudy
5:54 AM 71.1 °F - 64.9 °F 81% 29.99 in 10.0 mi NNE 5.8 mph - N/A   Scattered Clouds
6:54 AM 73.9 °F - 66.9 °F 79% 30.00 in 10.0 mi NNE 10.4 mph - N/A   Scattered Clouds
7:54 AM 77.0 °F - 66.9 °F 71% 30.01 in 10.0 mi NNE 10.4 mph 17.3 mph N/A   Clear
8:54 AM 79.0 °F - 68.0 °F 69% 30.02 in 10.0 mi NE 18.4 mph 23.0 mph N/A   Partly Cloudy
9:54 AM 78.1 °F - 70.0 °F 76% 30.02 in 10.0 mi NE 13.8 mph 24.2 mph N/A   Scattered Clouds
10:54 AM 80.1 °F 82.9 °F 69.1 °F 69% 30.02 in 10.0 mi NNE 10.4 mph 19.6 mph N/A   Scattered Clouds
11:54 AM 82.0 °F 84.5 °F 66.9 °F 60% 30.01 in 10.0 mi NNE 13.8 mph 23.0 mph N/A   Partly Cloudy
12:54 PM 80.1 °F 82.3 °F 66.9 °F 64% 30.00 in 10.0 mi NNE 11.5 mph 19.6 mph N/A   Scattered Clouds
1:54 PM 80.1 °F 82.3 °F 66.9 °F 64% 29.99 in 10.0 mi NNE 10.4 mph 21.9 mph N/A   Scattered Clouds
2:54 PM 82.9 °F 85.0 °F 66.0 °F 56% 29.98 in 10.0 mi NE 12.7 mph 20.7 mph N/A   Mostly Cloudy
3:54 PM 82.0 °F 84.1 °F 66.0 °F 58% 29.98 in 10.0 mi NE 13.8 mph 21.9 mph N/A   Scattered Clouds
4:54 PM 79.0 °F - 66.9 °F 66% 29.97 in 10.0 mi NNE 11.5 mph 21.9 mph N/A   Partly Cloudy
5:54 PM 77.0 °F - 68.0 °F 74% 29.98 in 10.0 mi NNE 13.8 mph 21.9 mph N/A   Clear
6:54 PM 75.0 °F - 68.0 °F 79% 30.00 in 10.0 mi NE 10.4 mph 17.3 mph N/A   Clear
7:54 PM 73.0 °F - 66.9 °F 81% 30.01 in 10.0 mi NE 9.2 mph - N/A   Clear
8:54 PM 73.0 °F - 68.0 °F 84% 30.03 in 10.0 mi NNE 5.8 mph - N/A   Clear
9:54 PM 73.0 °F - 69.1 °F 87% 30.04 in 10.0 mi NE 6.9 mph - N/A   Clear
10:54 PM 72.0 °F - 69.1 °F 91% 30.04 in 10.0 mi NE 4.6 mph - N/A   Clear
11:54 PM 72.0 °F - 69.1 °F 91% 30.03 in 10.0 mi NNE 10.4 mph 16.1 mph N/A   Clear